(177794) = 2002 VK50 = 2005 LS25

Discovered at Kitt Peak on 2005-06-08 by Spacewatch.

Orbit

Orbit type: Main Belt

Note: WebGL enabled browser required.

epoch2023-09-13.0
epoch JD2460200.5
perihelion date2019-11-14.53391
perihelion JD2458802.03391
argument of perihelion (°)284.14521
ascending node (°)83.55710
inclination (°)7.68691
eccentricity0.1044265
perihelion distance (AU)2.3872868
Tisserand w.r.t. Jupiter3.4
ΔV w.r.t. Earth (km/sec)10.0
semimajor axis (AU)2.6656514
mean anomaly (°)316.70195
mean daily motion (°/day)0.22646380
aphelion distance (AU)2.944
period (years)4.35
P-vector [x]0.98231909
P-vector [y]0.17545703
P-vector [z]-0.06529966
Q-vector [x]-0.13184399
Q-vector [y]0.89597563
Q-vector [z]0.42408116
absolute magnitude16.28
phase slope0.15
uncertainty0
referenceMPO 778164
observations used490
oppositions17
arc length (days)7665
first opposition used2002
last opposition used2023
residual rms (arc-secs)0.76
perturbers coarse indicatorM-v
perturbers precise indicator003Ek
first observation date used2002-11-05.0
last observation date used2023-10-31.0
computer nameMPCLINUX
JD of orbit computation2456847.668506
perihelion JD uncertainty (days)7.8839E-05
argument of perihelion uncertainty (°)3.1771E-05
ascending node uncertainty (°)2.7414E-05
inclination uncertainty (°)3.1203E-06
eccentricity uncertainty 3.2100E-08
perihelion distance uncertainty (AU)8.9401E-08
Minimum Orbit Intersection Distances (in AU)
for orbit epoch: 2460200.5, reference: E2023-V03
Mercury2.02345
Venus1.66413
Earth1.40015
Mars0.98274
Jupiter2.52255
Saturn6.37653
Uranus15.5447
Neptune27.4146

Observations

508 total observations over interval: 2002 11 05.27472 – 2023 10 31.223959
These data are available for download (format description).

Date (UT) J2000 RA J2000 Dec Magn Location Ref
2002 11 05.27472 03 27 48.97 +11 09 23.4 19.2   644 – Palomar Mountain/NEAT MPS 123535
2002 11 05.34684 03 27 44.73 +11 09 19.1 19.1   644 – Palomar Mountain/NEAT MPS 123535
2002 11 05.37239 03 27 43.21 +11 09 17.6 19.2 R 699 – Lowell Observatory-LONEOS MPS 66441
2002 11 05.38909 03 27 42.27 +11 09 16.5   699 – Lowell Observatory-LONEOS MPS 66441
2002 11 05.40572 03 27 41.27 +11 09 14.3   699 – Lowell Observatory-LONEOS MPS 66441
2002 11 05.41985 03 27 40.48 +11 09 14.4 19.3   644 – Palomar Mountain/NEAT MPS 123535
2002 11 05.42232 03 27 40.27 +11 09 15.4   699 – Lowell Observatory-LONEOS MPS 66441
2002 11 07.28072 03 25 53.88 +11 07 20.3 19.6   704 – Lincoln Laboratory ETS, New Mexico MPS 66441
2002 11 07.29828 03 25 52.77 +11 07 19.4 19.7   704 – Lincoln Laboratory ETS, New Mexico MPS 66441
2002 11 07.31593 03 25 51.76 +11 07 17.8 20.2   704 – Lincoln Laboratory ETS, New Mexico MPS 66441
2002 11 07.33335 03 25 50.65 +11 07 17.1 19.7   704 – Lincoln Laboratory ETS, New Mexico MPS 66441
2002 11 07.35087 03 25 49.66 +11 07 16.6 20.2   704 – Lincoln Laboratory ETS, New Mexico MPS 66441
2003 12 25.471860 11 05 59.882 +14 29 21.33 21.47 V 645 – Apache Point-Sloan Digital Sky Survey MPS 138654
2003 12 25.475332 11 05 59.952 +14 29 21.71 22.23   645 – Apache Point-Sloan Digital Sky Survey MPS 138654
2005 05 15.37076 16 04 29.45 -15 46 02.3 19.2 R G96 – Mt. Lemmon Survey MPS 137105
2005 05 15.37669 16 04 29.07 -15 46 02.0 19.1 R G96 – Mt. Lemmon Survey MPS 137105
2005 05 15.38262 16 04 28.77 -15 46 01.5 19.7 R G96 – Mt. Lemmon Survey MPS 137105
2005 05 15.38857 16 04 28.44 -15 46 01.0 19.1 R G96 – Mt. Lemmon Survey MPS 137105
2005 06 08.23124 15 42 26.46 -15 38 14.1 20.5 V 691 – Steward Observatory, Kitt Peak-Spacewatch MPS 136582
2005 06 08.24864 15 42 25.56 -15 38 14.6 20.6 V 691 – Steward Observatory, Kitt Peak-Spacewatch MPS 136582
2005 06 08.26605 15 42 24.65 -15 38 14.8 20.6 V 691 – Steward Observatory, Kitt Peak-Spacewatch MPS 136582
2005 06 13.23319 15 38 28.47 -15 40 05.2 20.4 V 691 – Steward Observatory, Kitt Peak-Spacewatch MPS 136582
2005 06 13.25060 15 38 27.63 -15 40 05.6 20.3 V 691 – Steward Observatory, Kitt Peak-Spacewatch MPS 136582
2005 06 13.26803 15 38 26.84 -15 40 06.2 20.3 V 691 – Steward Observatory, Kitt Peak-Spacewatch MPS 136582
2006 09 17.35238 00 26 24.52 -11 25 44.7 18.8 R 699 – Lowell Observatory-LONEOS MPS 179369
2006 09 17.37064 00 26 23.61 -11 25 51.8   699 – Lowell Observatory-LONEOS MPS 179369
2006 09 17.38892 00 26 22.72 -11 25 56.7   699 – Lowell Observatory-LONEOS MPS 179369
2006 09 17.40717 00 26 21.82 -11 26 02.7   699 – Lowell Observatory-LONEOS MPS 179369
2006 09 19.32035 00 24 48.99 -11 36 44.8 19.1 V 703 – Catalina Sky Survey MPS 179369
2006 09 19.33356 00 24 48.20 -11 36 49.2 19.1 V 703 – Catalina Sky Survey MPS 179369
2006 09 19.34679 00 24 47.55 -11 36 53.3 19.3 V 703 – Catalina Sky Survey MPS 179369
2006 09 19.36001 00 24 46.87 -11 36 58.3 19.1 V 703 – Catalina Sky Survey MPS 179369
2006 09 25.33977 00 19 45.01 -12 07 19.7 19.2 V 703 – Catalina Sky Survey MPS 181101
2006 09 25.34626 00 19 44.54 -12 07 21.3 19.0 V 703 – Catalina Sky Survey MPS 181101
2006 09 25.35275 00 19 44.25 -12 07 23.4 19.4 V 703 – Catalina Sky Survey MPS 181101
2006 09 25.35925 00 19 43.96 -12 07 24.5 18.9 V 703 – Catalina Sky Survey MPS 181101
2006 09 29.215706 00 16 26.146 -12 23 59.13 19.42 V 645 – Apache Point-Sloan Digital Sky Survey MPS 390146
2006 09 29.219178 00 16 25.956 -12 23 59.94 20.13   645 – Apache Point-Sloan Digital Sky Survey MPS 390146
2006 10 21.18424 00 00 15.26 -12 57 59.2 19.9 V 703 – Catalina Sky Survey MPS 184089
2006 10 21.19456 00 00 14.97 -12 57 59.2 19.6 V 703 – Catalina Sky Survey MPS 184089
2006 10 21.20488 00 00 14.58 -12 57 58.5 20.5 V 703 – Catalina Sky Survey MPS 184089
2006 10 21.21520 00 00 14.18 -12 57 58.2 20.0 V 703 – Catalina Sky Survey MPS 184089
2006 10 23.15412 23 59 13.93 -12 55 32.8 19.6 R 644 – Palomar Mountain/NEAT MPS 184089
2006 10 23.16746 23 59 13.51 -12 55 32.0 19.7 R 644 – Palomar Mountain/NEAT MPS 184089
2006 10 23.17484 23 59 13.26 -12 55 30.8 19.4 R 644 – Palomar Mountain/NEAT MPS 184089
2006 10 23.18817 23 59 12.81 -12 55 29.7 19.9 R 644 – Palomar Mountain/NEAT MPS 184089
2006 10 23.19545 23 59 12.63 -12 55 29.2 19.8 R 644 – Palomar Mountain/NEAT MPS 184089
2006 10 23.20999 23 59 12.11 -12 55 27.5 20.7 R 644 – Palomar Mountain/NEAT MPS 184089
2007 11 12.41306 08 47 37.68 +21 35 11.1 21.3 V G96 – Mt. Lemmon Survey MPS 226888
2007 11 12.41984 08 47 38.00 +21 35 11.4 21.2 V G96 – Mt. Lemmon Survey MPS 226888
2007 11 12.42661 08 47 38.22 +21 35 12.1 21.7 V G96 – Mt. Lemmon Survey MPS 226888
2007 11 12.43350 08 47 38.43 +21 35 12.3 21.0 V G96 – Mt. Lemmon Survey MPS 226888
2008 01 18.25051 08 32 52.26 +26 22 22.7 20.1 V G96 – Mt. Lemmon Survey MPS 234266
2008 01 18.25605 08 32 51.93 +26 22 24.7 20.1 V G96 – Mt. Lemmon Survey MPS 234266
2008 01 18.26150 08 32 51.61 +26 22 26.4 20.0 V G96 – Mt. Lemmon Survey MPS 234266
2008 01 18.26704 08 32 51.28 +26 22 28.7 19.9 V G96 – Mt. Lemmon Survey MPS 234266
2008 02 03.18892 08 17 06.97 +27 42 00.9 20.8 V 703 – Catalina Sky Survey MPS 236247
2008 02 03.19524 08 17 06.68 +27 42 00.3 19.9 V 703 – Catalina Sky Survey MPS 236247
2008 02 03.20156 08 17 06.32 +27 42 01.8 20.6 V 703 – Catalina Sky Survey MPS 236247
2008 02 03.20791 08 17 06.00 +27 42 04.0 19.7 V 703 – Catalina Sky Survey MPS 236247
2008 02 06.19756 08 14 18.63 +27 53 24.3 20.6 V 703 – Catalina Sky Survey MPS 236247
2008 02 06.20565 08 14 18.27 +27 53 25.1 20.4 V 703 – Catalina Sky Survey MPS 236247
2008 02 06.21375 08 14 17.84 +27 53 28.7 21.4 V 703 – Catalina Sky Survey MPS 236247
2008 02 06.22182 08 14 17.30 +27 53 29.7 20.2 V 703 – Catalina Sky Survey MPS 236247
2008 02 09.26326 08 11 35.19 +28 03 37.5 20.2 V G96 – Mt. Lemmon Survey MPS 237550
2008 02 09.26988 08 11 34.87 +28 03 38.8 20.3 V G96 – Mt. Lemmon Survey MPS 237550
2008 02 09.27662 08 11 34.51 +28 03 40.0 20.3 V G96 – Mt. Lemmon Survey MPS 237550
2008 02 09.28330 08 11 34.11 +28 03 41.2 20.1 V G96 – Mt. Lemmon Survey MPS 237550
2009 03 19.38711 14 24 45.13 -04 24 34.0 20.5 V 691 – Steward Observatory, Kitt Peak-Spacewatch MPS 281135
2009 03 19.40494 14 24 44.61 -04 24 30.0 20.8 V 691 – Steward Observatory, Kitt Peak-Spacewatch MPS 281135
2009 03 19.42276 14 24 44.11 -04 24 25.9 20.6 V 691 – Steward Observatory, Kitt Peak-Spacewatch MPS 281135
2009 04 30.29072 13 53 24.21 -01 48 45.1 20.2 V G96 – Mt. Lemmon Survey MPS 286365
2009 04 30.29889 13 53 23.82 -01 48 43.9 20.4 V G96 – Mt. Lemmon Survey MPS 286365
2009 04 30.30699 13 53 23.35 -01 48 42.5 20.2 V G96 – Mt. Lemmon Survey MPS 286365
2009 04 30.31521 13 53 22.92 -01 48 41.4 20.3 V G96 – Mt. Lemmon Survey MPS 286365
2010 08 02.452571 21 05 04.820 -26 32 57.10 19.28 i F51 – Pan-STARRS 1, Haleakala MPS 365070
2010 08 02.464979 21 05 04.098 -26 33 01.80 19.33 i F51 – Pan-STARRS 1, Haleakala MPS 365070
2010 08 06.444680 21 01 27.589 -26 57 20.89 19.93 g F51 – Pan-STARRS 1, Haleakala MPS 365070
2010 08 06.455671 21 01 26.954 -26 57 24.77 19.78 g F51 – Pan-STARRS 1, Haleakala MPS 365070
2010 08 16.46713 20 52 29.46 -27 48 25.5 19.3 V E12 – Siding Spring Survey MPS 346062
2010 08 16.47681 20 52 28.92 -27 48 27.5 19.7 V E12 – Siding Spring Survey MPS 346062
2010 08 16.48647 20 52 28.38 -27 48 29.9 20.1 V E12 – Siding Spring Survey MPS 346062
2010 08 16.49619 20 52 27.91 -27 48 33.1 19.4 V E12 – Siding Spring Survey MPS 346062
2010 08 18.343671 20 50 54.299 -27 56 11.36 19.38 i F51 – Pan-STARRS 1, Haleakala MPS 365070
2010 08 18.354506 20 50 53.730 -27 56 13.96 19.60 r F51 – Pan-STARRS 1, Haleakala MPS 365070
2010 08 18.365509 20 50 53.151 -27 56 16.56 19.60 r F51 – Pan-STARRS 1, Haleakala MPS 365070
2011 10 09.03122 06 06 39.36 +21 02 12.2 20.0 R C32 – Ka-Dar Observatory, TAU Station, Nizhny Arkhyz MPS 395990
2011 10 09.04072 06 06 39.72 +21 02 12.5 20.2 R C32 – Ka-Dar Observatory, TAU Station, Nizhny Arkhyz MPS 395990
2011 10 09.05011 06 06 40.06 +21 02 13.4 20.3 R C32 – Ka-Dar Observatory, TAU Station, Nizhny Arkhyz MPS 395990
2011 11 30.55640 06 00 33.395 +23 01 46.74 20.2 g F51 – Pan-STARRS 1, Haleakala MPS 403572
